Tracking 22283 objects as of 28-Jan-2021
HD Live streaming from Space Station
objects crossing your sky now

SOLRAD 11A

Track SOLRAD 11A now!
SOLRAD 11A is classified as:


NORAD ID: 8748
Int'l Code: 1976-023C
Perigee: 117,064.0 km
Apogee: 119,938.0 km
Inclination: 27.4 °
Period: 7,319.1 minutes
Semi major axis: 124871 km
RCS: Unknown
Launch date: March 15, 1976
Source: United States (US)
Launch site: AIR FORCE EASTERN TEST RANGE (AFETR)
aabbcc
Your satellite tracking list
Your tracking list is empty




NASA's NSSDC Master Catalog

Two Line Element Set (TLE):
1 08748U 76023C   21031.04089586 -.00000717  00000-0  00000-0 0  9998
2 08748  27.3981 336.2093 0115079  75.7885   0.7380  0.19674574  1606
Source of the keplerian elements: AFSPC